Location: Sternwarte Hubelmatt
(47.0367°N, 8.3053°E)
Time: 23:36:53
(UTC+01:00)

BlueWalker 3 - Visible Passes

Search period start: 29 November 2023 00:00
Search period end: 09 December 2023 00:00
Orbit: 489 x 504 km, 53.2° (Epoch: 29 November)

Date Brightness Start Highest point End Pass type
(mag) Time Alt. Az. Time Alt. Az. Time Alt. Az.
29 Nov 4.9 04:32:45 14° ENE 04:32:45 14° ENE 04:33:22 10° ENE visible
29 Nov 2.4 06:07:18 31° NW 06:08:50 52° NNE 06:12:34 10° E visible
30 Nov 2.3 05:45:43 47° N 05:46:15 52° NNE 05:50:00 10° E visible
01 Dec 2.7 05:24:08 48° NE 05:24:08 48° NE 05:27:24 10° E visible
01 Dec 2.7 06:58:42 12° WNW 07:01:58 38° SW 07:05:30 10° SSE visible
02 Dec 3.7 05:02:34 30° E 05:02:34 30° E 05:04:47 10° E visible
02 Dec 2.7 06:37:08 19° W 06:39:21 38° SW 06:42:54 10° SSE visible
03 Dec 4.7 04:41:03 18° E 04:41:03 18° E 04:42:09 10° E visible
03 Dec 2.6 06:15:37 31° W 06:16:44 38° SW 06:20:17 10° SSE visible
04 Dec 2.6 05:54:09 39° SW 05:54:09 39° SW 05:57:39 10° SSE visible
05 Dec 3.3 05:32:44 29° S 05:32:44 29° S 05:35:00 10° SSE visible
06 Dec 4.3 05:11:21 16° SSE 05:11:21 16° SSE 05:12:19 10° SSE visible
